Regional Weather Roundup
Issued by NWS

Home | Current Version | Previous Version | Text Only | Print | Product List | Glossary On
Versions: 1 2 3 4 5 6 7 8 9 10 11 12 13 14 15 16 17 18 19 20 21 22 23 24 25 26 27 28 29 30 31 32 33 34 35 36 37 38 39 40 41 42 43 44 45 46 47 48 49 50
000
ASUS43 KLMK 262210
RWRKY
KENTUCKY REGIONAL WEATHER ROUNDUP
NATIONAL WEATHER SERVICE LOUISVILLE KY
600 PM EDT MON JUN 26 2017

NOTE "FAIR" INDICATES FEW OR NO CLOUDS BELOW 12,000 FEET
WITH NO SIGNIFICANT WEATHER AND/OR OBSTRUCTIONS TO VISIBILITY.

KYZ001>023-026-027-061>063-070>075-262300-
WESTERN AND SOUTH CENTRAL KENTUCKY

CITY           SKY/WX    TMP DP  RH WIND       PRES   REMARKS
PADUCAH        SUNNY     77  52  41 W5        30.11F
HENDERSON      MOSUNNY   77  50  38 N3        30.10F
OWENSBORO      MOSUNNY   77  48  35 N8        30.11F
HOPKINSVILLE   SUNNY     78  50  37 N7        30.11F
BOWLING GREEN  SUNNY     77  50  38 N3        30.12F
GLASGOW        MOSUNNY   77  48  35 N5        30.12F
$$

KYZ024-025-028>034-038-045-046-053-262300-
NORTH CENTRAL KENTUCKY

CITY           SKY/WX    TMP DP  RH WIND       PRES   REMARKS
LOUISVILLE/SDF PTSUNNY   79  49  34 W13       30.10F
LOUISVILLE/LOU MOSUNNY   78  49  35 W7        30.10F
FORT KNOX      MOSUNNY   73  51  47 W6        30.10F
$$

KYZ035>037-039>044-047>052-055>060-089>105-262300-
NORTHEAST KENTUCKY

CITY           SKY/WX    TMP DP  RH WIND       PRES   REMARKS
LEXINGTON      MOSUNNY   73  47  39 W7        30.12F
COVINGTON      PTSUNNY   71  50  47 W12       30.09F
FRANKFORT      MOSUNNY   77  46  33 NW7       30.10F
$$

KYZ054-064>069-076>088-106>120-262300-
SOUTHEAST KENTUCKY

CITY           SKY/WX    TMP DP  RH WIND       PRES   REMARKS
JACKSON        SUNNY     73  50  44 VRB3      30.11F
LONDON         MOSUNNY   75  47  36 NW9       30.11F
SOMERSET       SUNNY     73  45  35 N8        30.13S
MIDDLESBORO    MOSUNNY   77  54  45 NW6       30.10F
MONTICELLO     CLEAR     76  53  44 NW8       30.14S
$$




USA.gov is the U.S. government's official web portal to all federal, state and local government web resources and services.